Regional Weather Roundup
Issued by NWS

Home | Current Version | Previous Version | Graphics & Text | Print | Product List | Glossary On
Versions: 1 2 3 4 5 6 7 8 9 10 11 12 13 14 15 16 17 18 19 20 21 22 23 24 25 26 27 28 29 30 31 32 33 34 35 36 37 38 39 40 41 42 43 44 45 46 47 48 49 50
000
ASUS43 KLMK 281202
RWRKY
KENTUCKY REGIONAL WEATHER ROUNDUP
NATIONAL WEATHER SERVICE LOUISVILLE KY
700 AM EST SUN DEC 28 2014

NOTE "FAIR" INDICATES FEW OR NO CLOUDS BELOW 12,000 FEET
WITH NO SIGNIFICANT WEATHER AND/OR OBSTRUCTIONS TO VISIBILITY.

KYZ001>023-026-027-061>063-070>075-281300-
WESTERN AND SOUTH CENTRAL KENTUCKY

CITY           SKY/WX    TMP DP  RH WIND       PRES   REMARKS
PADUCAH        CLOUDY    37  34  89 N9        30.18R WCI  30
HENDERSON      CLOUDY    36  28  75 N10       30.18R WCI  28
OWENSBORO      CLOUDY    36  33  88 N6        30.16S WCI  31
HOPKINSVILLE   CLOUDY    38  35  88 N7        30.16R WCI  33
BOWLING GREEN  CLOUDY    40  37  89 N5        30.12S
GLASGOW        NOT AVBL
$$

KYZ024-025-028>034-038-045-046-053-281300-
NORTH CENTRAL KENTUCKY

CITY           SKY/WX    TMP DP  RH WIND       PRES   REMARKS
LOUISVILLE/SDF LGT RAIN  39  36  89 NW8       30.12F WCI  33
LOUISVILLE/LOU CLOUDY    39  37  92 NW9       30.12R WCI  33
FORT KNOX      CLOUDY    37  35  94 NW5       30.10F WCI  33
$$

KYZ035>037-039>044-047>052-055>060-089>105-281300-
NORTHEAST KENTUCKY

CITY           SKY/WX    TMP DP  RH WIND       PRES   REMARKS
LEXINGTON      CLOUDY    40  39  97 NW12      30.09R FOG     WCI  33
COVINGTON      DRIZZLE   36  31  82 N8        30.11R WCI  30
FRANKFORT      CLOUDY    39  37  92 N7        30.09R FOG     WCI  34
$$

KYZ054-064>069-076>088-106>120-281300-
SOUTHEAST KENTUCKY

CITY           SKY/WX    TMP DP  RH WIND       PRES   REMARKS
JACKSON        FOG       46  44  93 CALM      30.04R VSB 1/4
LONDON         LGT RAIN  47  43  86 S3        30.06R FOG
SOMERSET       NOT AVBL
MIDDLESBORO    NOT AVBL
MONTICELLO     CLOUDY    48  48 100 CALM      30.10R FOG
$$



USA.gov is the U.S. government's official web portal to all federal, state and local government web resources and services.